User: anonymous   Login
Location: Fort Wayne
(41.1310°N, 85.1290°W)
Time: 19:09:10
(UTC-04:00)
Language:

Meteor 2-9 Rocket - Orbit

View from above orbital plane
View from above orbital plane
View from above satellite
View from above satellite

Ground track
Ground track

The orbit data is extracted from the following two-line orbital elements,

1 13719U 82116B   15182.01912462  .00000062  00000-0  25480-4 0  9992
2 13719 081.2544 342.8889 0070935 238.0063 259.0233 14.14547080678970
Epoch (UTC): 01 July 2015 00:27:32
Eccentricity: 0.0070935
inclination: 81.2544°
perigee height: 792 km
apogee height: 895 km
right ascension of ascending node: 342.8889°
argument of perigee: 238.0063°
revolutions per day: 14.14547080
mean anomaly at epoch: 259.0233°
orbit number at epoch: 67897

The dashed part of the orbit path shows where the satellite is in the earth's shadow,  

DLR